Location: Hickory_CSC
(35.7330°N, 81.3330°W)
Time: 16:38:31
(UTC-04:00)

ISS - All Passes

Search period start: 22 May 2015 00:00
Search period end: 01 June 2015 00:00
Orbit: 399 x 404 km, 51.6° (Epoch: 22 May)

Date Brightness Start Highest point End Pass type
(mag) Time Alt. Az. Time Alt. Az. Time Alt. Az.
22 May - 01:59:36 10° SW 02:02:50 82° NW 02:06:06 10° NE visible
22 May - 03:38:16 10° NW 03:39:44 12° NNW 03:41:07 10° N visible
22 May - 08:29:40 10° NNW 08:32:38 31° NE 08:35:36 10° E daylight
22 May - 10:06:22 10° WNW 10:08:56 21° SW 10:11:28 10° S daylight
23 May - 01:06:37 10° SSW 01:09:42 42° SE 01:12:48 10° ENE night (unlit)
23 May - 02:43:51 10° WNW 02:46:17 19° NNW 02:48:41 10° NNE visible
23 May - 07:36:55 10° NNW 07:39:16 18° NNE 07:41:39 10° ENE daylight
23 May - 09:12:43 10° WNW 09:15:52 46° SW 09:19:00 10° SSE daylight
24 May - 00:14:13 10° S 00:16:37 20° SE 00:19:05 10° E night (unlit)
24 May - 01:49:55 10° WSW 01:52:54 32° NW 01:55:52 10° NNE visible
24 May - 06:44:29 10° N 06:45:46 12° NNE 06:47:07 10° NE daylight
24 May - 08:19:25 10° NW 08:22:41 76° NE 08:25:57 10° SE daylight
25 May - 00:56:22 10° SW 00:59:35 67° NW 01:02:50 10° NE night (unlit)
25 May - 02:35:31 10° NW 02:36:34 11° NNW 02:37:32 10° N visible
25 May - 07:26:21 10° NNW 07:29:23 36° NE 07:32:27 10° ESE daylight
25 May - 09:03:19 10° W 09:05:38 18° SW 09:07:53 10° S daylight
26 May - 00:03:12 10° SSW 00:06:22 52° SE 00:09:32 10° ENE night (unlit)
26 May - 01:40:46 10° WNW 01:43:00 17° NNW 01:45:12 10° NNE visible
26 May - 06:33:27 10° NNW 06:35:58 20° NNE 06:38:31 10° E daylight
26 May - 08:09:26 10° WNW 08:12:30 38° SW 08:15:32 10° SSE daylight
26 May - 23:10:33 10° S 23:13:11 23° SE 23:15:52 10° ENE night (unlit)
27 May - 00:46:39 10° W 00:49:31 28° NW 00:52:23 10° NNE visible
27 May - 05:40:49 10° N 05:42:25 13° NNE 05:44:05 10° NE visible
27 May - 07:15:59 10° NW 07:19:15 88° SW 07:22:31 10° SE daylight
27 May - 22:19:06 10° SE 22:20:02 11° SE 22:21:06 10° ESE night (unlit)
27 May - 23:52:56 10° WSW 23:56:07 55° NW 23:59:19 10° NE night (unlit)
28 May - 01:32:53 10° NNW 01:33:09 10° NNW 01:33:21 10° NNW visible
28 May - 06:22:46 10° NW 06:25:54 42° NE 06:29:01 10° ESE daylight
28 May - 08:00:06 10° W 08:02:05 15° SW 08:03:57 10° SSW daylight
28 May - 22:59:35 10° SW 23:02:47 65° SE 23:06:00 10° NE night (unlit)
29 May - 00:37:28 10° WNW 00:39:29 15° NNW 00:41:28 10° N visible
29 May - 05:29:45 10° NNW 05:32:25 23° NNE 05:35:07 10° E visible
29 May - 07:05:55 10° WNW 07:08:52 31° SW 07:11:47 10° SSE daylight
29 May - 22:06:42 10° SSW 22:09:30 28° SE 22:12:21 10° ENE night (unlit)
29 May - 23:43:10 10° W 23:45:54 24° NNW 23:48:38 10° NNE visible
30 May - 04:36:57 10° N 04:38:49 14° NNE 04:40:44 10° ENE visible
30 May - 06:12:19 10° NW 06:15:35 73° SW 06:18:49 10° SE daylight
30 May - 21:14:40 10° SSE 21:16:15 13° SE 21:17:57 10° E visible
30 May - 22:49:15 10° WSW 22:52:24 46° NW 22:55:32 10° NE visible
31 May - 05:18:59 10° NW 05:22:10 50° NE 05:25:20 10° ESE visible
31 May - 06:56:46 10° W 06:58:17 12° SW 06:59:40 10° SSW daylight
31 May - 21:55:44 10° SW 21:58:57 79° SE 22:02:12 10° NE visible
31 May - 23:33:57 10° WNW 23:35:44 14° NNW 23:37:28 10° N visible
